Location: Albuquerque Trail
(34.8359°N, 106.3997°W)
Time: 20:18:48
(UTC+00:00)

Daily predictions for brighter satellites

Satellite Brightness Start Highest point End
(mag) Time Altitude Azimuth Time Altitude Azimuth Time Altitude Azimuth
Meteor 1-31 Rocket 3.3 12:03:39 10° N 12:07:19 40° WNW 12:10:57 10° SW
Okean O Rocket 2.7 12:07:50 10° NNE 12:12:10 50° E 12:16:29 10° S
Cosmos 1656 Rocket 4.5 12:08:15 10° SW 12:13:19 33° WNW 12:18:25 10° N
Okean 1-7 3.1 12:10:33 10° S 12:14:55 86° E 12:19:21 10° N
Cosmos 1346 Rocket 2.8 12:11:25 10° NNW 12:15:31 76° W 12:19:34 10° S
CZ-4B R/B 4.5 12:12:17 10° N 12:15:33 30° WNW 12:18:45 10° SW
Aureole 2 Rocket 2.3 12:13:30 10° SW 12:16:08 38° WNW 12:18:42 10° N
BREEZE-M DEB (TANK) 4.2 12:04:16 10° SW 12:16:37 53° SE 12:20:17 10° ENE
Cosmos 1908 Rocket 3.5 12:12:31 10° N 12:16:51 81° W 12:21:10 10° S
ATLAS 3B R/B 3.9 12:15:30 10° W 12:20:27 22° NW 12:25:22 10° N
S3M 4.0 12:17:05 10° N 12:23:14 72° W 12:29:25 10° S
COSMOS 2487 3.4 12:21:18 10° NW 12:24:13 25° W 12:27:07 10° SSW
